Location: Croisilles
(50.1998°N, 2.8793°E)
Time: 20:51:27
(UTC+00:00)

Okean O Rocket - Pass Details

Date: 21 January 2021
Orbit: 622 x 645 km, 98.2° (Epoch: 02 March)

Event Time Altitude Azimuth Distance (km) Brightness Sun altitude
Rises 16:55:38 0° 154° (SSE) 2,944 5.0 -5.3°
Reaches altitude 10° 16:57:51 10° 151° (SSE) 2,037 4.2 -5.6°
Maximum altitude 17:02:13 62° 71° (ENE) 728 1.7 -6.3°
Drops below altitude 10° 17:06:36 10° 352° (N) 2,041 4.1 -6.9°
Sets 17:08:50 0° 349° (N) 2,951 4.9 -7.3°
